[Date Prev][Date Next][Thread Prev][Thread Next] - [Date Index][Thread Index][Author Index]

MIR~Sputnik~ISS 11-25 Keps



MIR
1 16609U 86017A   98329.49132415  .00027010  00000-0  21110-3 0  9891
2 16609  51.6595 306.5259 0007885  13.4961 346.6166 15.71398324729369


SPUTNIK 41
1 25533U 98062C   98329.09371907  .00157668  00000-0  10295-2 0   117
2 25533  51.6585 308.3583 0009423  21.5560 338.5845 15.74789675  2161


ISS
1 25544U 98067A   98329.76398233  .00036674  00000-0  46293-3 0   402
2 25544  51.5969 139.8693 0009299 225.7346 134.3365 15.59156335   877

----
Via the sarex mailing list at AMSAT.ORG courtesy of AMSAT-NA.
To unsubscribe, send "unsubscribe sarex" to Majordomo@amsat.org



AMSAT Top AMSAT Home